5 day graph

You are here

Hive Data

Page: 1 of 16645  Records: 998690

Row Date Time Hive Temp Hive Humidity Outside Temp Outside Humidity Bottom Board Temp Outside Wall Temp Electronics Temp Light Levels inHG Fan Heat Cover Notes
Clear Sorted By: Outside Temp ascending, Row descending
View 693089 Nov 8 2015 11:20:14am 32.3 44 10.5 86 74.3 59.45 68 284 29.1 0 1 0 NA
View 693088 Nov 8 2015 11:19:15am 32.3 45 10.5 85 73.4 59.45 68 284 29.11 0 1 0 NA
View 693087 Nov 8 2015 11:18:14am 32.4 43 10.5 86 72.5 59.45 66.2 284 29.11 0 1 0 NA
View 693086 Nov 8 2015 11:17:14am 32.3 43 10.5 86 71.6 59.45 66.2 284 29.11 0 1 0 NA
View 693085 Nov 8 2015 11:16:14am 32.3 47 10.5 86 70.7 59.45 66.2 285 29.11 0 1 0 NA
View 693084 Nov 8 2015 11:15:14am 32.4 46 10.5 86 69.8 59.45 66.2 285 29.11 0 1 0 NA
View 693082 Nov 8 2015 11:13:13am 32.3 48 10.5 86 67.55 59.45 64.4 287 29.11 0 1 0 NA
View 693081 Nov 8 2015 11:12:13am 32.2 47 10.5 86 66.65 59.45 64.4 289 29.11 0 1 0 NA
View 693080 Nov 8 2015 11:11:13am 32.2 47 10.5 86 65.3 59.45 64.4 289 29.11 0 1 0 NA
View 693083 Nov 8 2015 11:14:14am 32.3 49 10.6 86 68.9 59.45 66.2 286 29.11 0 1 0 NA
View 693079 Nov 8 2015 11:10:13am 32.2 42 10.6 86 64.4 59.45 64.4 291 29.11 0 1 0 NA
View 693078 Nov 8 2015 11:09:12am 32.2 43 10.6 85 63.05 59.45 64.4 291 29.11 0 1 0 NA
View 693077 Nov 8 2015 11:08:12am 32.2 43 10.6 85 61.25 59.45 64.4 293 29.11 0 1 0 NA
View 693076 Nov 8 2015 11:07:12am 32.3 44 10.6 85 59.9 59.45 64.4 295 29.11 0 1 0 NA
View 693075 Nov 8 2015 11:06:12am 32.2 46 10.6 85 58.1 59.45 64.4 297 29.11 0 1 0 NA
View 693074 Nov 8 2015 11:05:11am 32.2 48 10.7 85 56.3 59.45 62.6 298 29.11 0 1 0 NA
View 693073 Nov 8 2015 11:04:11am 32.1 48 10.7 85 54.05 59.45 62.6 299 29.11 0 1 0 NA
View 696803 Nov 11 2015 2:59:26pm 25.3 45 10.9 59 52.7 54.5 68 931 29.56 0 1 0 NA
View 696804 Nov 11 2015 3:00:27pm 25.6 41 11 59 54.95 54.5 68 930 29.56 0 1 0 NA
View 722084 Nov 29 2015 6:35:21am 61.7 43 18.5 81 18.95 26.6 35.6 446 29.47 0 0 0 NA
View 722083 Nov 29 2015 6:34:20am 61.7 43 18.5 80 18.95 26.6 35.6 446 29.46 0 0 0 NA
View 722082 Nov 29 2015 6:33:20am 61.88 41 18.5 80 18.95 26.6 35.6 446 29.47 0 0 0 NA
View 722081 Nov 29 2015 6:32:20am 61.88 42 18.5 80 18.95 26.6 35.6 446 29.47 0 0 0 NA
View 722080 Nov 29 2015 6:31:20am 61.88 46 18.5 79 18.95 26.6 35.6 445 29.47 0 0 0 NA
View 722079 Nov 29 2015 6:30:20am 61.7 48 18.5 79 18.95 26.6 35.6 446 29.47 0 0 0 NA
View 722078 Nov 29 2015 6:29:19am 61.7 49 18.5 79 18.95 26.6 35.6 446 29.46 0 0 0 NA
View 722077 Nov 29 2015 6:28:19am 61.52 56 18.5 79 18.95 26.6 35.6 446 29.46 0 0 0 NA
View 722076 Nov 29 2015 6:27:19am 61.34 42 18.5 79 18.95 26.6 35.6 446 29.47 0 0 0 NA
View 722075 Nov 29 2015 6:26:19am 61.34 43 18.5 79 18.95 26.6 35.6 446 29.46 0 0 0 NA
View 722074 Nov 29 2015 6:25:19am 61.34 42 18.5 79 18.95 26.6 35.6 446 29.46 0 0 0 NA
View 722073 Nov 29 2015 6:24:19am 61.34 39 18.5 80 18.95 26.6 35.6 446 29.46 0 0 0 NA
View 722145 Nov 29 2015 7:36:32am 61.52 40 18.68 82 18.5 26.6 35.6 449 29.46 0 0 0 NA
View 722144 Nov 29 2015 7:35:32am 61.52 39 18.68 82 18.5 26.6 35.6 449 29.46 0 0 0 NA
View 722143 Nov 29 2015 7:34:32am 61.52 42 18.68 82 18.5 26.15 35.6 450 29.46 0 0 0 NA
View 722142 Nov 29 2015 7:33:32am 61.52 40 18.68 81 18.5 26.15 35.6 450 29.47 0 0 0 NA
View 722141 Nov 29 2015 7:32:32am 61.52 41 18.68 81 18.5 26.15 35.6 450 29.46 0 0 0 NA
View 722140 Nov 29 2015 7:31:32am 61.7 39 18.68 80 18.5 26.15 35.6 449 29.46 0 0 0 NA
View 722139 Nov 29 2015 7:30:31am 61.7 35 18.68 80 18.5 26.15 35.6 449 29.46 0 0 0 NA
View 722138 Nov 29 2015 7:29:31am 61.88 36 18.68 80 18.5 26.15 35.6 449 29.46 0 0 0 NA
View 722137 Nov 29 2015 7:28:31am 61.88 41 18.68 80 18.5 26.15 35.6 449 29.46 0 0 0 NA
View 722136 Nov 29 2015 7:27:31am 61.88 41 18.68 80 18.5 26.15 35.6 449 29.46 0 0 0 NA
View 722135 Nov 29 2015 7:26:31am 61.88 38 18.68 80 18.5 26.15 35.6 449 29.47 0 0 0 NA
View 722134 Nov 29 2015 7:25:30am 61.88 40 18.68 80 18.5 26.15 35.6 448 29.46 0 0 0 NA
View 722133 Nov 29 2015 7:24:30am 61.88 41 18.68 80 18.5 26.15 35.6 449 29.46 0 0 0 NA
View 722131 Nov 29 2015 7:22:30am 62.06 42 18.68 79 18.5 26.15 35.6 449 29.46 0 0 0 NA
View 722101 Nov 29 2015 6:52:24am 61.34 43 18.68 82 18.95 26.6 35.6 445 29.47 0 0 0 NA
View 722100 Nov 29 2015 6:51:24am 61.34 41 18.68 81 18.5 26.6 35.6 446 29.47 0 0 0 NA
View 722099 Nov 29 2015 6:50:24am 61.34 37 18.68 81 18.5 26.6 35.6 446 29.46 0 0 0 NA
View 722098 Nov 29 2015 6:49:23am 61.52 37 18.68 80 18.95 26.6 35.6 446 29.47 0 0 0 NA
View 722097 Nov 29 2015 6:48:23am 61.52 39 18.68 80 18.95 26.6 35.6 446 29.46 0 0 0 NA
View 722096 Nov 29 2015 6:47:23am 61.52 41 18.68 80 18.95 26.6 35.6 445 29.47 0 0 0 NA
View 722095 Nov 29 2015 6:46:23am 61.52 39 18.68 80 18.95 26.6 35.6 446 29.47 0 0 0 NA
View 722094 Nov 29 2015 6:45:22am 61.7 39 18.68 80 18.95 26.6 35.6 446 29.46 0 0 0 NA
View 722093 Nov 29 2015 6:44:22am 61.7 40 18.68 80 18.95 26.6 35.6 446 29.47 0 0 0 NA
View 722092 Nov 29 2015 6:43:22am 61.7 43 18.68 80 18.95 26.6 35.6 446 29.47 0 0 0 NA
View 722091 Nov 29 2015 6:42:22am 61.7 36 18.68 80 18.95 26.6 35.6 446 29.47 0 0 0 NA
View 722090 Nov 29 2015 6:41:22am 61.7 35 18.68 80 18.95 26.6 35.6 446 29.46 0 0 0 NA
View 722089 Nov 29 2015 6:40:22am 61.7 37 18.68 80 18.95 26.6 35.6 446 29.47 0 0 0 NA
View 722088 Nov 29 2015 6:39:21am 61.7 36 18.68 80 18.95 26.6 35.6 445 29.46 0 0 0 NA
View 722087 Nov 29 2015 6:38:21am 61.88 38 18.68 80 18.95 26.6 35.6 446 29.47 0 0 0 NA